Kelly, NC

7:34 AM EST on December 04, 2016 (GMT -0500)
Elizabethtown

Weather History for KEYF - March, 2013

Change the Weather History Date:

Sunday, March 3, 2013

  Actual Average (KLBT) Record (KLBT)
Temperature  
Mean Temperature 38 °F 51 °F  
Max Temperature 47 °F 62 °F 75 °F (2004)
Min Temperature 30 °F 39 °F 22 °F (2005)
Degree Days  
Heating Degree Days 26 15  
Month to date heating degree days 45  
Since 1 July heating degree days 2275  
Cooling Degree Days 0 0  
Month to date cooling degree days 0  
Year to date cooling degree days 3  
Moisture  
Dew Point 22 °F    
Average Humidity 51    
Maximum Humidity 78    
Minimum Humidity 34    
Precipitation  
Precipitation 0.00 in 0.12 in 0.80 in (2012)
Month to date precipitation 0.35  
Year to date precipitation 6.22  
Sea Level Pressure  
Sea Level Pressure 29.92 in    
Wind  
Wind Speed 5 mph (NW)    
Max Wind Speed 13 mph    
Max Gust Speed 20 mph    
Visibility 10 miles    
Events      
T = Trace of Precipitation, MM = Missing Value Source: NWS Daily Summary

Daily Weather History Graph

Daily Weather History Graph

Search for Another Location

Airport or City:

Trip Planner

Search our weather history database for the weather conditions in past years. The results will help you decide how hot, cold, wet, or windy it might be!

Date:

Astronomy

Mar. 03, 2013 Rise Set
Actual Time 6:40 AM EST 6:12 PM EST
Civil Twilight 6:15 AM EST 6:37 PM EST
Nautical Twilight 5:46 AM EST 7:06 PM EST
Astronomical Twilight 5:17 AM EST 7:35 PM EST
Moon No Moon Rise 10:10 AM EST (3/3)
Length of Visible Light 12h 22m
Length of Day
11h 31m
Waning Gibbous, 64% of the Moon is Illuminated
Mar 3
Waning Gibbous
Mar 4
Last Quarter
Mar 11
New
Mar 19
First Quarter
Mar 27
Full

Hourly Weather History & Observations

Time (EST) Temp. Windchill Dew Point Humidity Pressure Visibility Wind Dir Wind Speed Gust Speed Precip Events Conditions
12:15 AM 39.2 °F 35.0 °F 32.9 °F 78% 29.89 in 10.0 mi NNW 5.8 mph - N/A   Scattered Clouds
12:35 AM 38.3 °F 33.2 °F 31.6 °F 77% 29.89 in 10.0 mi NNW 6.9 mph - N/A   Scattered Clouds
12:55 AM 38.3 °F 34.8 °F 28.9 °F 69% 29.90 in 10.0 mi North 4.6 mph - N/A   Scattered Clouds
1:15 AM 36.7 °F 34.1 °F 26.6 °F 67% 29.90 in 10.0 mi North 3.5 mph - N/A   Scattered Clouds
2:15 AM 34.7 °F - 23.5 °F 64% 29.91 in 10.0 mi Calm Calm - N/A   Clear
2:35 AM 33.8 °F 30.8 °F 23.5 °F 66% 29.91 in 10.0 mi NNW 3.5 mph - N/A   Clear
2:55 AM 32.7 °F - 23.7 °F 69% 29.91 in 10.0 mi Calm Calm - N/A   Clear
3:15 AM 32.0 °F - 23.4 °F 70% 29.90 in 10.0 mi Calm Calm - N/A   Clear
3:35 AM 32.0 °F - 23.7 °F 71% 29.90 in 10.0 mi Calm Calm - N/A   Scattered Clouds
3:55 AM 32.9 °F - 23.9 °F 69% 29.91 in 10.0 mi Calm Calm - N/A   Overcast
4:15 AM 33.3 °F 30.2 °F 23.0 °F 66% 29.91 in 10.0 mi NNW 3.5 mph - N/A   Overcast
4:35 AM 33.1 °F 27.7 °F 21.9 °F 64% 29.91 in 10.0 mi NW 5.8 mph - N/A   Overcast
4:55 AM 33.1 °F - 21.9 °F 64% 29.91 in 10.0 mi Calm Calm - N/A   Overcast
5:15 AM 32.2 °F 28.9 °F 21.2 °F 64% 29.92 in 10.0 mi NNW 3.5 mph - N/A   Scattered Clouds
5:35 AM 31.8 °F - 21.2 °F 65% 29.92 in 10.0 mi Calm Calm - N/A   Clear
6:15 AM 31.5 °F 28.1 °F 21.2 °F 66% 29.93 in 10.0 mi NW 3.5 mph - N/A   Overcast
6:35 AM 30.9 °F 27.5 °F 20.8 °F 66% 29.93 in 10.0 mi NW 3.5 mph - N/A   Mostly Cloudy
6:55 AM 30.6 °F - 21.2 °F 68% 29.94 in 10.0 mi Calm Calm - N/A   Scattered Clouds
7:35 AM 31.6 °F 27.0 °F 21.0 °F 65% 29.95 in 10.0 mi NW 4.6 mph - N/A   Clear
8:15 AM 33.8 °F 28.6 °F 20.8 °F 59% 29.96 in 10.0 mi NNW 5.8 mph - N/A   Clear
8:35 AM 35.1 °F 30.1 °F 20.7 °F 56% 29.96 in 10.0 mi NNW 5.8 mph - N/A   Clear
9:15 AM 38.1 °F 31.7 °F 20.1 °F 48% 29.96 in 10.0 mi NNW 9.2 mph - N/A   Clear
9:35 AM 38.3 °F 33.9 °F 19.4 °F 47% 29.95 in 10.0 mi NNW 5.8 mph - N/A   Clear
9:55 AM 39.9 °F 35.8 °F 19.4 °F 44% 29.95 in 10.0 mi NNW 5.8 mph - N/A   Clear
10:15 AM 40.1 °F 36.9 °F 18.9 °F 43% 29.94 in 10.0 mi North 4.6 mph - N/A   Clear
10:35 AM 40.1 °F 36.9 °F 18.7 °F 42% 29.94 in 10.0 mi North 4.6 mph - N/A   Clear
10:55 AM 40.6 °F 38.6 °F 18.7 °F 41% 29.94 in 10.0 mi West 3.5 mph - N/A   Clear
11:15 AM 41.0 °F 34.7 °F 19.0 °F 41% 29.93 in 10.0 mi NW 10.4 mph - N/A   Clear
11:35 AM 41.4 °F 36.8 °F 18.3 °F 40% 29.93 in 10.0 mi NNW 6.9 mph - N/A   Clear
11:55 AM 42.6 °F 37.2 °F 18.1 °F 37% 29.92 in 10.0 mi NW 9.2 mph - N/A   Clear
12:15 PM 43.5 °F 37.5 °F 18.5 °F 37% 29.92 in 10.0 mi West 11.5 mph 17.3 mph N/A   Clear
12:35 PM 43.7 °F 37.7 °F 18.7 °F 37% 29.91 in 10.0 mi NW 11.5 mph 18.4 mph N/A   Clear
12:55 PM 44.1 °F 40.1 °F 19.0 °F 37% 29.89 in 10.0 mi NNW 6.9 mph - N/A   Clear
1:15 PM 44.4 °F 40.5 °F 18.5 °F 35% 29.88 in 10.0 mi WNW 6.9 mph - N/A   Clear
1:35 PM 45.1 °F 39.5 °F 19.4 °F 36% 29.88 in 10.0 mi West 11.5 mph - N/A   Clear
1:55 PM 45.3 °F 41.1 °F 19.0 °F 35% 29.87 in 10.0 mi West 8.1 mph 17.3 mph N/A   Clear
2:15 PM 46.0 °F 40.6 °F 19.6 °F 35% 29.87 in 10.0 mi NW 11.5 mph 17.3 mph N/A   Scattered Clouds
2:35 PM 46.0 °F 41.0 °F 19.4 °F 35% 29.87 in 10.0 mi NW 10.4 mph 19.6 mph N/A   Scattered Clouds
2:55 PM 46.4 °F 41.1 °F 19.8 °F 35% 29.86 in 10.0 mi NW 11.5 mph 16.1 mph N/A   Clear
3:15 PM 46.9 °F - 19.9 °F 34% 29.86 in 10.0 mi West 8.1 mph 16.1 mph N/A   Clear
3:35 PM 46.9 °F - 19.8 °F 34% 29.86 in 10.0 mi WNW 10.4 mph 16.1 mph N/A   Scattered Clouds
3:55 PM 47.1 °F - 19.9 °F 34% 29.86 in 10.0 mi WNW 4.6 mph - N/A   Clear
4:15 PM 47.3 °F - 19.9 °F 34% 29.86 in 10.0 mi WNW 12.7 mph - N/A   Scattered Clouds
4:35 PM 47.3 °F - 20.1 °F 34% 29.86 in 10.0 mi WNW 8.1 mph 11.5 mph N/A   Clear
4:55 PM 46.9 °F - 20.5 °F 35% 29.86 in 10.0 mi West 10.4 mph - N/A   Clear
5:15 PM 46.9 °F - 21.0 °F 36% 29.87 in 10.0 mi WNW 9.2 mph - N/A   Clear
5:35 PM 46.0 °F 41.0 °F 21.0 °F 37% 29.87 in 10.0 mi WNW 10.4 mph - N/A   Clear
5:55 PM 45.5 °F 42.5 °F 21.2 °F 38% 29.88 in 10.0 mi WNW 5.8 mph - N/A   Clear
6:15 PM 44.6 °F 43.1 °F 21.7 °F 40% 29.89 in 10.0 mi West 3.5 mph - N/A   Clear
6:35 PM 43.2 °F 40.5 °F 22.5 °F 44% 29.90 in 10.0 mi West 4.6 mph - N/A   Clear
6:55 PM 41.5 °F 39.6 °F 22.8 °F 47% 29.90 in 10.0 mi West 3.5 mph - N/A   Clear
7:15 PM 41.2 °F 39.2 °F 23.2 °F 49% 29.91 in 10.0 mi West 3.5 mph - N/A   Clear
7:35 PM 40.1 °F 38.0 °F 23.0 °F 51% 29.92 in 10.0 mi West 3.5 mph - N/A   Clear
7:55 PM 40.1 °F 38.0 °F 23.0 °F 51% 29.92 in 10.0 mi West 3.5 mph - N/A   Clear
8:15 PM 39.6 °F 37.4 °F 23.0 °F 52% 29.93 in 10.0 mi WSW 3.5 mph - N/A   Clear
8:35 PM 37.9 °F 35.5 °F 23.9 °F 57% 29.93 in 10.0 mi WSW 3.5 mph - N/A   Clear
8:55 PM 37.2 °F 34.7 °F 23.7 °F 58% 29.94 in 10.0 mi WSW 3.5 mph - N/A   Clear
9:15 PM 38.3 °F 35.9 °F 23.0 °F 54% 29.94 in 10.0 mi West 3.5 mph - N/A   Clear
9:35 PM 37.9 °F 35.5 °F 23.5 °F 56% 29.95 in 10.0 mi NW 3.5 mph - N/A   Clear
9:55 PM 37.4 °F 33.8 °F 23.9 °F 58% 29.96 in 10.0 mi WNW 4.6 mph - N/A   Clear
10:15 PM 37.8 °F 32.5 °F 23.0 °F 55% 29.96 in 10.0 mi NW 6.9 mph - N/A   Clear
10:35 PM 37.6 °F 33.1 °F 22.3 °F 54% 29.97 in 10.0 mi NNW 5.8 mph - N/A   Clear
10:55 PM 36.5 °F 32.7 °F 22.1 °F 56% 29.98 in 10.0 mi NNW 4.6 mph - N/A   Clear
11:15 PM 36.5 °F 31.8 °F 21.6 °F 55% 29.98 in 10.0 mi NNW 5.8 mph - N/A   Clear
11:35 PM 35.4 °F - 21.2 °F 56% 29.98 in 10.0 mi Calm Calm - N/A   Clear
11:55 PM 34.7 °F - 21.0 °F 57% 29.98 in 10.0 mi Calm Calm - N/A   Clear